Location: Canyam�s
(41.5996°N, 2.4450°E)
Time: 08:13:59
(UTC+00:00)

Cosmos 1553 Rocket - Pass Details

Date: 06 June 2020
Orbit: 941 x 1009 km, 82.9° (Epoch: 08 July)

Event Time Altitude Azimuth Distance (km) Brightness Sun altitude
Rises 22:21:42 0° 347° (NNW) 3,685 8.5 -22.5°
Reaches altitude 10° 22:24:18 10° 343° (NNW) 2,723 7.5 -22.7°
Maximum altitude 22:30:17 52° 269° (W) 1,177 4.5 -23.1°
Enters shadow 22:32:47 33° 212° (SSW) 1,555 4.7 -23.2°
